Tracking 29892 objects as of 21-Nov-2024
HD Live streaming from Space Station
objects crossing your sky now

FENGYUN 1C DEB

Track FENGYUN 1C DEB now!
10-day predictions


NORAD ID: 31437
Int'l Code: 1999-025BTZ
Perigee: 771.6 km
Apogee: 793.0 km
Inclination: 98.9 °
Period: 100.3 minutes
Semi major axis: 7153 km
RCS: 0.0094 m2 (small)
Launch date: May 10, 1999
Source: People's Republic of China (PRC)
Launch site: Taiyaun Space Center, China (TSC)

Note: This is SATELLITE DEBRIS
Your satellite tracking list
Your tracking list is empty




NASA's NSSDC Master Catalog

Two Line Element Set (TLE):
1 31437U 99025BTZ 24325.11924277  .00012299  00000-0  43237-2 0  9996
2 31437  98.8821  26.8928 0014969 315.1215  44.8758 14.34980065909350
Source of the keplerian elements: AFSPC